Regional Weather Roundup
Issued by NWS Newport/Morehead, NC

Current Version | Previous Version | Text Only | Print | Product List | Glossary Off
Versions: 1 2 3 4 5 6 7 8 9 10 11 12 13 14 15 16 17 18 19 20 21 22 23 24 25 26 27 28 29 30 31 32 33 34 35 36 37 38 39 40 41 42 43
000 ASUS42 KMHX 160614 RWRMHX WEATHER ROUNDUP FOR EASTERN NORTH CAROLINA NATIONAL WEATHER SERVICE NEWPORT/MOREHEAD CITY NC 200 AM EDT WED AUG 16 2017 NOTE: "FAIR" INDICATES FEW OR NO CLOUDS BELOW 12,000 FEET WITH NO SIGNIFICANT WEATHER AND/OR OBSTRUCTIONS TO VISIBILITY NCZ015>017-031-032-045>047-102-103-160700- NORTH COAST CITY SKY/WX TMP DP RH WIND PRES REMARKS EDENTON CLOUDY 78 76 92 CALM 29.90F ELIZABETH CITY CLOUDY 77 77 100 N6 29.90S KITTY HAWK CLOUDY 77 77 100 CALM 29.88F MANTEO PTCLDY 77 75 93 SW5 29.90S $$ NCZ045>047-081-094-103-104-160700- CENTRAL COAST CITY SKY/WX TMP DP RH WIND PRES REMARKS FRISCO CLOUDY 78 77 96 SW8 29.88F $$ NCZ095-097-098-100-101-160700- SOUTHERN COAST CITY SKY/WX TMP DP RH WIND PRES REMARKS BEAUFORT MOCLDY 80 79 96 N7 29.90S CEDAR ISLAND NOT AVBL JACKSONVILLE LGT RAIN 76 76 100 CALM 29.89F PINEY ISLAND PTCLDY N/A N/A N/A W3 29.89F WILMINGTON PTCLDY 79 76 90 CALM 29.90F $$ NCZ011>013-027>030-043-044-078>080-089-090>093-098-160700- COASTAL PLAIN CITY SKY/WX TMP DP RH WIND PRES REMARKS AHOSKIE N/A 75 75 99 CALM 29.91S CLINTON CLEAR 76 76 100 CALM 29.91F ELIZABETHTOWN NOT AVBL GOLDSBORO CLOUDY 76 74 92 E5 29.91F GREENVILLE CLEAR 75 75 100 N3 29.93S FOG HAVELOCK MOCLDY 79 76 90 CALM 29.90F KENANSVILLE CLEAR 75 75 100 CALM 29.90F FOG KINSTON PTCLDY 75 75 98 N3 29.91S NEW BERN CLOUDY 77 77 100 CALM 29.91F RICHLANDS PTCLDY 76 76 100 CALM 29.90F FOG ROCKY MOUNT PTCLDY 73 73 100 CALM 29.92F FOG WASHINGTON CLOUDY 75 75 98 CALM 29.90F FOG WHITEVILLE PTCLDY 78 77 97 CALM 29.91R $$ AMZ130-135-150-152-154-156-158-170-250-252-270-ANZ085-086-088-633-658-670-160700- MARINE OBSERVATIONS STATION/POSITION TIME TEMP WIND PRES WAVE SWELL AIR SEA DIR/SP/G HT/PER HT/PER (UTC) (F) (DEG/KT/KT) (MB) (FT/S) (FT/S) CHESAPEAKE LIGHT NOT AVBL 64 E VA BEACH 0550 79 79 30/ 2/ 4 1012.4 5/ 9 5/ 9 DUCK 0548 78 75 30/ 3/ 3 1011.8 2 E DUCK 0600 80 N/A 3/ 9 2/11 OREGON INLET 0536 80 81 210/ 9/ 11 1012.0 13E OREGON INLT 0548 78 N/A 5/ 8 5/ 8 HATTERAS CG 0548 78 84 210/ 7/ 10 1011.9 DIAMOND BUOY 0550 79 83 220/ 14/ 14 1011.3 3/ 8 3/ 8 CAPE LOOKOUT 0600 81 300/ 8/ 9 1012.1 BEAUFORT LAB 0548 80 82 340/ 4/ 9 1011.9 30 SE NEW RVR IN 0508 80 83 240/ 4/ 6 1012.5 30 SE NEW RVR IN 0543 83 N/A 3/ 4 27 SE WRIGHTSVLE 0508 83 83 250/ 10/ 14 1012.5 5 SE WRIGHTSVLE 0508 83 83 280/ 8/ 14 1013.4 225 S CAPE HAT 0550 84 84 250/ 14/ 17 1014.4 5/ 6 2/ 8 41 SE CHARLESTON 0600 83 83 240/ 14/ 17 1013.1 $$

USA.gov is the U.S. government's official web portal to all federal, state and local government web resources and services.